Anderson, IN

8:09 AM EDT on June 18, 2018 (GMT -0400)
Anderson Municipal-Darlington

Weather History for KAID - June, 2018

Change the Weather History Date:

Wednesday, June 13, 2018

  Actual Average Record
Temperature  
Mean Temperature 72 °F -  
Max Temperature 82 °F 77 °F 91 °F (2001)
Min Temperature 60 °F 61 °F 53 °F (2006)
Cooling Degree Days 6    
Growing Degree Days 22 (Base 50)    
Moisture  
Dew Point 65 °F    
Average Humidity 78    
Maximum Humidity 94    
Minimum Humidity 44    
Precipitation  
Precipitation 0.00 in - - ()
Sea Level Pressure  
Sea Level Pressure 29.95 in    
Wind  
Wind Speed 6 mph (WSW)    
Max Wind Speed 16 mph    
Max Gust Speed 18 mph    
Visibility 10 miles    
Events      
Averages and records for this station are not official NWS values.
T = Trace of Precipitation, MM = Missing Value Source: NWS Daily Summary

Daily Weather History Graph

Daily Weather History Graph

Search for Another Location

Airport or City:

Astronomy

Jun. 13, 2018 Rise Set
Actual Time 6:12 AM EDT 9:12 PM EDT
Civil Twilight 5:39 AM EDT 9:45 PM EDT
Nautical Twilight 4:58 AM EDT 10:27 PM EDT
Astronomical Twilight 4:09 AM EDT 11:15 PM EDT
Moon 6:14 AM EDT (6/13) 9:07 PM EDT (6/13)
Length of Visible Light 16h 05m
Length of Day
14h 59m
Waning Crescent, 0% of the Moon is Illuminated
Jun 13
Waning Crescent
Jun 13
New
Jun 20
First Quarter
Jun 28
Full
Jul 6
Last Quarter

Hourly Weather History & Observations

Time (EDT) Temp. Heat Index Dew Point Humidity Pressure Visibility Wind Dir Wind Speed Gust Speed Precip Events Conditions
12:35 AM 71.1 °F - 67.1 °F 87% 29.93 in 10.0 mi South 5.8 mph - N/A   Mostly Cloudy
12:55 AM 70.7 °F - 67.1 °F 88% 29.92 in 10.0 mi South 5.8 mph - N/A   Scattered Clouds
1:15 AM 70.5 °F - 67.1 °F 89% 29.92 in 10.0 mi SSW 4.6 mph - N/A   Clear
1:35 AM 70.2 °F - 67.3 °F 91% 29.92 in 10.0 mi SSW 3.5 mph - N/A   Scattered Clouds
1:55 AM 70.0 °F - 67.5 °F 92% 29.92 in 10.0 mi SSW 3.5 mph - N/A   Scattered Clouds
2:15 AM 70.0 °F - 67.6 °F 92% 29.92 in 10.0 mi SW 4.6 mph - N/A   Clear
2:35 AM 70.3 °F - 68.2 °F 93% 29.92 in 10.0 mi SSW 5.8 mph - N/A   Mostly Cloudy
2:55 AM 70.3 °F - 68.2 °F 93% 29.91 in 10.0 mi SSW 8.1 mph - N/A   Overcast
3:15 AM 70.7 °F - 68.5 °F 93% 29.91 in 10.0 mi SSW 5.8 mph - N/A   Overcast
3:35 AM 70.3 °F - 68.4 °F 93% 29.92 in 10.0 mi SSW 6.9 mph - N/A   Scattered Clouds
3:55 AM 70.3 °F - 68.5 °F 94% 29.92 in 10.0 mi SW 5.8 mph - N/A   Mostly Cloudy
4:15 AM 70.7 °F - 68.5 °F 93% 29.91 in 7.0 mi SW 8.1 mph - N/A   Mostly Cloudy
4:35 AM 70.0 °F - 68.2 °F 94% 29.91 in 7.0 mi SW 5.8 mph - N/A   Scattered Clouds
4:55 AM 70.2 °F - 68.2 °F 93% 29.92 in 10.0 mi WSW 4.6 mph - N/A   Mostly Cloudy
5:15 AM 70.7 °F - 68.0 °F 91% 29.91 in 10.0 mi WSW 5.8 mph - N/A   Overcast
5:35 AM 70.7 °F - 68.0 °F 91% 29.91 in 10.0 mi WSW 5.8 mph - N/A   Mostly Cloudy
5:55 AM 70.3 °F - 67.5 °F 91% 29.91 in 10.0 mi WSW 4.6 mph - N/A   Scattered Clouds
6:15 AM 70.3 °F - 67.3 °F 90% 29.91 in 10.0 mi SW 5.8 mph - N/A   Scattered Clouds
6:35 AM 70.3 °F - 67.3 °F 90% 29.92 in 10.0 mi SW 5.8 mph - N/A   Clear
6:55 AM 70.3 °F - 67.5 °F 91% 29.92 in 10.0 mi SW 5.8 mph - N/A   Clear
7:15 AM 70.7 °F - 67.6 °F 90% 29.93 in 10.0 mi SW 6.9 mph - N/A   Clear
7:35 AM 70.7 °F - 67.8 °F 91% 29.93 in 10.0 mi SW 6.9 mph - N/A   Clear
7:55 AM 71.6 °F - 68.2 °F 89% 29.93 in 10.0 mi SW 8.1 mph - N/A   Clear
8:15 AM 72.0 °F - 68.2 °F 88% 29.95 in 10.0 mi WSW 8.1 mph - N/A   Clear
8:35 AM 72.7 °F - 68.7 °F 87% 29.95 in 10.0 mi WSW 4.6 mph - N/A   Clear
8:48 AM 73.4 °F - 68.0 °F 83% 29.94 in 10.0 mi West 11.5 mph - N/A   Mostly Cloudy
8:55 AM 72.9 °F - 68.5 °F 86% 29.95 in 10.0 mi West 6.9 mph - N/A   Mostly Cloudy
9:15 AM 73.8 °F - 68.9 °F 85% 29.96 in 10.0 mi WSW 6.9 mph - N/A   Overcast
9:35 AM 74.1 °F - 69.3 °F 85% 29.96 in 10.0 mi SW 6.9 mph - N/A   Mostly Cloudy
9:49 AM 75.2 °F - 68.0 °F 78% 29.94 in 10.0 mi WSW 11.5 mph - N/A   Scattered Clouds
11:49 AM 80.6 °F 84.6 °F 71.6 °F 74% 29.96 in 10.0 mi WSW 11.5 mph - N/A   Scattered Clouds
1:45 PM 82.4 °F 86.3 °F 69.8 °F 66% 29.93 in 10.0 mi West 11.5 mph - N/A   Mostly Cloudy
2:45 PM 73.4 °F - 71.6 °F 94% 29.94 in 10.0 mi Calm Calm - N/A   Mostly Cloudy
3:45 PM 80.6 °F 84.6 °F 71.6 °F 74% 29.93 in 10.0 mi NNW 11.5 mph - N/A   Mostly Cloudy
5:35 PM 81.9 °F 84.8 °F 68.4 °F 63% 29.97 in 10.0 mi NNW 9.2 mph - N/A   Mostly Cloudy
5:55 PM 82.4 °F 85.4 °F 68.0 °F 62% 29.96 in 10.0 mi NNW 10.4 mph - N/A   Mostly Cloudy
6:15 PM 81.9 °F 84.4 °F 67.1 °F 61% 29.96 in 10.0 mi NNW 13.8 mph 18.4 mph N/A   Scattered Clouds
6:35 PM 81.5 °F 83.7 °F 66.2 °F 60% 29.97 in 10.0 mi North 13.8 mph - N/A   Scattered Clouds
6:55 PM 80.4 °F 81.6 °F 62.6 °F 54% 29.97 in 10.0 mi NNW 16.1 mph - N/A   Clear
7:15 PM 79.7 °F - 57.7 °F 47% 29.97 in 10.0 mi North 9.2 mph - N/A   Clear
7:35 PM 79.0 °F - 56.7 °F 46% 29.97 in 10.0 mi North 9.2 mph 16.1 mph N/A   Clear
7:55 PM 77.9 °F - 56.3 °F 47% 29.97 in 10.0 mi North 11.5 mph 17.3 mph N/A   Clear
8:15 PM 76.5 °F - 53.6 °F 45% 29.98 in 10.0 mi North 8.1 mph - N/A   Clear
8:35 PM 75.0 °F - 51.4 °F 44% 29.99 in 10.0 mi North 9.2 mph - N/A   Clear
8:55 PM 73.2 °F - 50.4 °F 44% 30.00 in 10.0 mi Calm Calm - N/A   Clear
9:15 PM 70.9 °F - 50.9 °F 49% 29.99 in 10.0 mi Calm Calm - N/A   Clear
9:35 PM 69.3 °F - 52.7 °F 56% 30.00 in 10.0 mi Calm Calm - N/A   Clear
9:55 PM 68.7 °F - 52.0 °F 55% 30.01 in 10.0 mi Calm Calm - N/A   Clear
11:35 PM 61.7 °F - 56.1 °F 82% 30.03 in 10.0 mi Calm Calm - N/A   Clear
11:55 PM 60.1 °F - 54.0 °F 80% 30.04 in 10.0 mi Calm Calm - N/A   Clear